Вернуться в каталог

GLOBALSTAR M101

АктивенСвязьLEO
NORAD 100330·PAYLOAD·🇺🇸 United States

Запущен Aug 16, 2026 с Cape Canaveral Space Force Station

Loading…

Ближайшие Пролёты (ближайшие 24 часа)

TLE

СвежийSource: Space-Track

Эпоха: Sep 13, 2026, 23:48 UTC

1 A0330U 26185F   26256.99204938  .00000254  00000-0  85733-4 0  9994
2 A0330  51.9958 113.5440 0009107 325.9819  34.0553 14.63478939  4230

Отслеживайте GLOBALSTAR M101 в реальном времени с AllMySat

Download on the App Store